EHI
0 0 0 0 0 0 0 0 0 0 0 0 0 0 0 0 0 0 0 0 0 0 0 0 0 0 0 0 0 0 0 1 3 3 2 1 0 0 0 0 0 0 0
0 0 0 0 0 0 0 0 0 0 0 0 0 0 0 0 0 0 0 0 0 0 0 0 0 0 0 0 0 0 1 2 3 3 2 1 0 0 0 0 0 0 0
1 0 0 0 0 0 0 0 0 0 0 0 0 0 0 0 0 0 0 0 0 0 0 0 0 0 0 0 1 1 1 3 3 3 2 1 0 0 0 0 0 0 0
2 1 0 0 0 0 0 0 0 0 0 0 0 0 0 0 0 0 0 0 0 0 0 0 0 0 0 0 1 2 2 2 3 3 2 1 0 0 0 0 0 0 0
2 2 1 1 1 0 0 0 0 0 0 0 0 0 0 0 0 0 0 0 0 0 0 0 0 0 0 0 1 2 2 1 1 2 2 1 0 0 0 0 0 0 0
1 1 1 2 2 1 0 0 0 0 0 0 0 0 0 0 0 0 0 0 0 0 0 0 0 0 0 0 0 1 2 1 1 1 1 0 0 0 0 0 0 0 0
0 0 1 1 2 1 0 0 0 0 0 0 0 0 0 0 0 0 0 0 0 0 0 0 0 0 0 0 0 0 1 1 1 1 0 0 0 0 0 0 0 0 0
0 0 0 0 1 1 0 0 0 0 0 0 0 0 0 0 0 0 0 0 0 0 0 0 0 0 0 0 0 0 0 1 1 1 1 0 0 0 0 0 0 0 0
0 0 0 0 0 0 0 0 0 0 0 0 0 0 0 0 0 0 0 0 0 0 0 0 0 0 0 0 0 0 0 0 1 1 1 0 0 0 1 0 0 0 0
0 0 0 0 0 0 0 0 0 0 0 0 0 0 0 0 0 0 0 0 0 0 0 0 0 0 0 0 0 0 0 0 0 0 0 0 0 0 0 0 0 0 0
0 0 0 0 0 0 0 0 0 0 0 0 0 0 0 0 0 0 0 0 0 0 0 0 0 0 0 0 0 0 0 0 0 0 0 0 0 0 0 0 0 0 0
0 0 0 0 0 0 0 0 0 0 0 0 0 0 0 0 0 0 0 0 0 0 0 0 0 0 0 0 0 0 0 0 0 0 0 0 0 0 0 0 0 0 0
0 0 0 0 0 0 0 0 0 0 0 0 0 0 0 0 0 0 0 0 0 0 0 0 0 0 0 0 0 0 0 0 0 0 0 0 0 0 0 0 0 0 0
0 0 0 0 0 0 0 0 0 0 0 0 0 0 0 0 0 0 0 0 0 0 0 0 0 0 0 0 0 0 0 0 0 0 0 0 0 0 0 0 0 0 0
0 0 0 0 0 0 0 0 0 0 0 0 0 0 0 0 0 0 0 0 0 0 0 0 0 0 0 0 0 0 0 0 0 0 0 0 0 0 0 0 0 0 0
0 0 0 0 0 0 0 0 0 0 0 0 0 0 0 0 0 0 0 0 0 0 0 0 0 0 0 0 0 0 0 0 0 0 0 0 0 0 0 0 0 0 0
0 0 0 0 0 0 0 0 0 0 0 0 0 0 0 0 0 0 0 0 0 0 0 0 0 0 0 0 0 0 0 0 0 0 0 0 0 0 0 0 0 0 0
0 0 0 0 0 0 0 0 0 0 0 0 0 0 0 0 0 0 0 0 0 0 0 0 0 0 0 0 0 0 0 0 0 0 0 0 0 0 0 0 0 0 0
0 0 0 0 0 0 0 0 0 0 0 0 0 0 0 0 0 0 0 0 0 0 0 0 0 0 0 0 0 0 0 0 0 0 0 0 0 0 0 0 0 0 0
0 0 0 0 0 0 0 0 0 0 0 0 0 0 0 0 0 0 0 0 0 0 0 0 0 0 0 0 0 0 0 0 0 0 0 0 0 0 0 0 0 0 0
0 0 0 0 0 0 0 0 0 0 0 0 0 0 0 0 0 0 0 0 0 0 0 0 0 0 0 0 0 0 0 0 0 0 0 0 0 0 0 0 0 0 0
0 0 0 0 0 0 0 0 0 0 0 0 0 0 0 0 0 0 0 0 0 0 0 0 0 0 0 0 0 0 0 0 0 0 0 0 0 0 0 0 0 0 0
0 0 0 0 0 0 0 0 0 0 0 0 0 0 0 0 0 0 0 0 0 0 0 0 0 0 0 0 0 0 0 0 0 0 0 0 0 0 0 0 0 0 0
0 0 0 0 0 0 0 0 0 0 0 0 0 0 0 0 0 0 0 0 0 0 0 0 0 0 0 0 0 0 0 0 0 0 0 0 0 0 0 0 0 0 0
0 0 0 0 0 0 0 0 0 0 0 0 0 0 0 0 0 0 0 0 0 0 0 0 0 0 0 0 0 0 0 0 0 0 0 0 0 0 0 0 0 0 0
0 0 0 0 0 0 0 0 0 0 0 0 0 0 0 0 0 0 0 0 0 0 0 0 0 0 0 0 0 0 0 0 0 0 0 0 0 0 0 0 0 0 0
Wind_Speed
2 2 2 2 3 3 3 4 4 5 5 5 5 6 5 5 4 4 3 8 9 10 11 11 11 11 11 10 10 10 10 10 10 9 10 10 9 9 8 7 7 6 6
2 2 3 3 3 3 3 3 4 4 4 4 5 5 5 5 5 4 3 4 8 9 10 10 10 10 10 10 9 9 9 9 9 9 9 9 9 8 8 8 8 7 7
2 2 3 2 2 3 4 4 4 4 5 5 5 5 4 4 4 4 4 3 4 7 9 9 9 9 8 8 9 8 8 8 8 8 8 8 8 8 7 8 7 7 7
3 3 3 2 2 3 3 3 3 4 4 4 4 3 3 3 4 4 3 3 3 3 5 8 8 8 7 7 7 7 7 7 7 7 7 7 7 7 7 7 7 7 7
3 3 2 2 2 3 3 3 3 3 4 3 3 3 3 3 3 4 4 4 3 3 3 5 6 6 6 6 6 6 6 6 6 6 7 6 6 6 6 6 6 6 6
3 3 2 2 3 3 3 3 3 3 3 2 4 4 3 3 3 3 3 3 3 3 2 3 2 3 5 5 5 5 5 5 5 5 5 5 5 5 5 5 5 5 5
2 3 2 2 3 3 2 3 3 3 2 2 4 3 3 3 4 3 2 2 3 3 2 2 2 2 1 3 3 4 5 4 4 4 4 4 4 5 4 5 5 5 5
2 2 2 2 2 3 3 3 3 2 1 1 3 3 2 3 3 3 2 2 2 2 3 2 2 2 1 1 2 3 4 4 4 4 4 4 4 4 4 4 4 4 4
2 2 2 2 2 2 2 2 3 3 2 1 1 3 3 2 1 2 3 2 2 2 2 1 2 1 1 1 1 1 2 3 3 3 3 3 3 4 3 3 3 3 3
1 2 2 2 2 2 2 2 2 2 3 1 1 1 2 3 3 0 2 2 2 2 1 1 1 1 1 1 1 2 2 2 2 2 2 3 3 3 3 2 2 2 2
1 1 2 2 2 2 2 2 2 2 2 2 1 1 2 2 2 3 1 2 2 2 1 1 1 1 1 1 0 1 2 2 2 1 1 1 2 2 2 1 1 2 2
1 1 2 2 2 2 2 2 3 3 2 2 1 1 2 2 2 2 2 1 0 2 2 1 1 1 1 1 0 1 1 1 1 1 1 0 1 1 1 1 1 1 2
1 2 1 2 2 2 3 3 3 2 2 2 2 1 1 1 2 2 3 2 0 1 2 2 1 1 1 1 1 1 1 1 1 1 1 0 1 1 2 2 2 2 2
3 3 2 2 2 2 3 3 2 2 2 2 2 2 1 1 1 2 3 3 1 1 1 2 1 1 1 1 1 1 1 0 0 1 1 0 0 1 1 1 1 1 1
2 3 3 2 2 2 3 3 2 2 2 2 2 2 1 1 1 1 2 3 3 2 1 2 1 2 1 1 1 1 1 1 1 0 0 0 1 0 0 0 1 0 0
2 3 3 3 2 2 3 3 2 2 3 2 1 2 1 1 1 1 1 1 2 3 2 1 1 1 1 1 2 1 1 2 2 2 1 1 0 0 1 0 0 1 1
1 2 3 3 3 2 2 3 3 3 3 2 1 2 2 2 1 1 1 1 1 2 2 1 0 1 1 1 2 2 1 1 1 2 1 1 1 1 1 2 2 2 2
1 2 2 2 3 2 2 3 3 3 3 3 2 2 2 2 2 1 1 1 1 1 3 2 0 0 1 1 0 1 1 1 1 2 2 2 2 1 1 1 2 2 2
1 1 1 2 2 3 3 3 3 3 3 3 3 3 3 3 2 1 2 2 1 1 2 2 1 1 0 0 1 1 1 1 2 2 2 2 2 2 2 2 2 2 3
2 2 2 2 2 2 3 3 3 3 3 3 3 3 3 4 4 3 2 2 2 2 1 2 1 1 1 1 0 0 1 2 2 2 2 2 3 3 3 3 3 3 2
2 2 2 1 1 2 2 3 3 3 3 2 2 3 3 4 5 3 3 3 3 2 1 1 1 1 1 1 1 1 1 2 2 1 1 2 2 2 2 4 4 3 3
1 1 2 2 1 2 3 3 3 3 3 3 3 2 2 3 4 4 4 4 4 4 3 2 2 2 3 2 2 1 1 1 2 2 1 2 1 2 3 2 4 4 4
2 2 2 2 3 3 3 4 4 3 3 3 3 3 2 2 2 2 3 3 3 4 5 4 3 4 4 4 3 2 2 2 3 2 1 3 2 3 3 3 5 5 4
2 2 3 3 2 3 4 4 4 3 3 3 4 4 3 3 3 3 2 2 2 2 4 3 4 5 4 4 4 4 4 2 2 2 1 2 2 3 3 3 5 6 5
2 2 2 3 3 3 4 4 3 3 2 3 3 3 4 4 5 4 3 2 2 2 3 4 4 4 4 4 3 2 1 1 2 2 1 1 2 2 3 3 4 5 5
2 2 2 3 4 4 5 5 4 3 3 2 2 3 5 5 6 5 4 4 4 3 2 1 2 2 2 2 3 3 3 2 1 2 2 1 1 1 2 2 2 2 3
Wind_Direction
64 60 51 44 42 52 65 67 68 72 72 71 79 83 78 75 68 59 64 84 95 100 97 94 92 92 93 92 89 88 86 87 85 83 80 80 81 82 86 89 93 96 99
76 70 65 52 46 57 67 76 76 75 70 73 75 75 76 75 71 69 59 74 86 97 97 94 93 95 94 94 93 92 89 88 86 84 83 82 82 81 81 83 85 87 91
82 77 74 65 51 64 71 72 68 71 76 73 69 69 71 71 72 70 64 58 69 84 90 93 95 94 95 94 94 94 92 89 89 89 86 85 84 83 82 83 82 82 85
89 84 79 70 67 72 74 80 73 74 69 68 67 65 66 71 73 71 68 64 61 65 73 84 87 87 94 96 100 97 92 89 89 88 86 86 85 84 84 83 82 84 84
88 96 89 81 82 79 74 88 74 84 83 75 78 69 58 63 69 75 70 69 66 64 59 69 75 81 88 92 100 102 95 91 92 90 86 87 87 85 84 81 84 87 85
78 89 91 82 88 86 76 83 86 75 87 89 86 67 51 51 57 62 68 67 63 62 58 54 51 61 79 84 94 105 102 99 97 95 92 90 90 87 85 85 85 88 88
84 88 94 93 96 102 109 108 101 89 72 80 83 58 31 36 50 43 46 55 55 52 57 63 55 41 42 68 84 99 101 99 103 104 107 105 99 95 89 91 88 88 87
103 107 111 118 117 111 99 98 104 100 86 84 109 99 51 10 11 23 30 47 40 38 47 66 57 56 46 42 73 95 94 104 106 109 118 117 112 106 97 99 91 91 90
120 126 136 134 126 123 133 133 124 120 124 52 95 127 133 180 323 352 14 29 33 43 28 28 46 36 69 69 63 86 94 94 105 112 124 127 121 118 114 108 101 97 99
153 146 136 138 134 132 138 154 138 133 132 136 55 74 135 150 141 63 349 360 15 32 23 35 33 25 40 57 71 94 97 86 93 105 128 134 131 126 118 110 107 107 109
190 166 143 141 142 145 149 146 127 126 131 142 148 124 90 80 98 127 141 335 359 352 356 5 19 16 25 45 109 98 93 89 89 87 108 140 139 130 117 116 118 125 115
282 234 157 145 147 150 152 152 147 138 135 127 119 116 131 131 144 136 146 173 315 313 342 1 13 356 358 20 90 94 104 89 79 74 45 164 164 143 135 141 129 125 131
217 232 180 161 157 160 157 146 134 140 139 131 124 117 120 137 143 140 136 152 150 316 347 348 331 338 1 15 3 56 83 107 40 357 3 2 217 185 156 148 131 119 117
207 200 190 171 169 163 154 144 133 148 136 137 132 126 113 119 138 145 152 146 123 359 351 299 325 345 353 9 354 24 31 70 305 268 254 339 199 162 153 152 131 119 110
199 188 184 172 178 168 159 150 148 156 140 139 143 138 132 159 147 137 142 152 153 169 257 278 304 318 334 15 11 36 13 11 18 358 140 67 30 45 93 168 177 163 167
201 178 178 172 178 178 162 157 153 151 136 144 147 133 128 147 136 120 128 120 137 157 193 248 253 302 342 28 22 18 4 12 20 48 55 39 359 260 235 235 231 230 259
169 168 173 170 178 176 171 164 166 156 151 153 147 143 152 141 125 107 110 113 121 132 153 249 288 352 19 25 10 3 2 357 359 16 18 356 347 292 256 250 242 222 234
165 170 161 161 170 169 170 171 176 165 161 164 168 154 168 143 129 134 135 145 159 156 150 174 248 339 283 259 12 354 352 355 326 349 350 350 338 334 299 287 262 237 249
173 163 149 172 185 181 178 177 169 169 175 179 178 174 179 156 152 153 150 156 165 149 135 153 198 221 275 314 18 342 338 336 314 333 329 323 315 310 294 295 293 268 246
182 183 182 190 198 196 194 187 176 175 178 184 187 182 181 174 175 169 159 160 150 131 130 148 174 206 230 275 119 289 322 320 306 324 323 318 311 294 280 280 278 272 246
191 194 180 180 204 200 200 194 186 180 179 179 185 186 185 185 182 178 170 170 158 151 155 167 185 187 219 220 225 224 265 303 306 287 302 303 304 298 283 273 266 262 254
204 192 191 186 208 221 201 184 177 178 177 178 188 196 195 188 187 188 187 180 173 170 181 183 205 211 230 218 202 210 216 282 287 273 245 284 278 271 272 259 257 256 253
204 203 212 201 217 227 206 194 188 175 179 187 191 194 203 201 194 187 203 205 208 207 192 185 199 216 215 214 192 202 218 227 242 243 205 271 274 271 274 276 262 252 249
205 211 213 213 223 233 214 200 189 178 179 196 201 195 192 197 199 178 174 188 222 232 224 211 206 221 222 212 200 202 210 228 271 261 185 244 267 270 285 279 265 253 251
226 224 214 207 219 242 226 211 187 177 184 205 210 198 191 196 207 187 170 190 229 255 253 254 250 248 244 229 194 146 157 178 272 267 217 210 252 284 285 271 269 262 255
226 228 233 223 220 235 234 217 198 180 194 212 220 217 213 208 207 197 188 192 218 236 225 250 272 274 258 234 213 189 186 197 237 255 225 194 237 282 293 274 266 271 258